[[{"header":{"parameterUnit":"m.s-1","parameterCategory":1,"la1":30.2991,"la2":30.254,"lo1":-89.0895,"lo2":-89.0444,"dy":0.0017,"dx":0.0017,"nx":28,"ny":28,"refTime":"2024-10-13T09:00:00:Z","depth":0,"parameterNumber":2,"parameterNumberName":"U-component_of_WINDS"},"data":[0,0,0,0,0,0,0,0,0,0,0,0,0,0,0,0,0,0,0,0,0,0,0,0,0,0,0,0,0,0,0,0,0,0,0,0,0,0,0,0,0,0,0,0,0,0,0,0,0,0,0,0,0,0,0,0,0,0,3.1412,3.1413,0,3.1512,3.1513,3.1514,3.1457,3.1454,3.1452,3.1449,3.1557,3.1562,3.1568,0,0,0,0,0,0,0,0,0,0,0,0,0,3.1183,3.1187,3.1412,3.1414,3.1415,3.1511,3.1513,3.1514,3.1458,3.1454,3.1451,3.1448,3.1555,3.1562,3.1568,0,0,0,0,0,0,0,0,0,0,0,0,0,3.1282,3.1189,3.1412,3.1398,3.1398,3.1511,3.1513,3.1514,3.1458,3.1454,3.145,3.1446,3.1553,3.1561,3.1569,3.1704,0,0,3.1594,3.1598,0,0,0,0,0,0,0,0,3.1277,3.1291,3.1399,3.1399,3.1399,3.1467,3.1471,3.1578,3.1459,3.1436,3.1449,3.1444,3.1531,3.1541,3.1569,3.1709,3.1713,3.1595,3.16,3.1603,3.1606,0,0,0,0,0,0,0,3.127,3.1286,3.1452,3.1401,3.1401,3.139,3.1399,3.1491,3.1506,3.1437,3.1433,3.1446,3.153,3.1561,3.1571,3.1715,3.1595,3.1602,3.1607,3.161,3.1976,3.198,0,0,0,0,0,0,3.1263,3.1281,3.1449,3.1455,3.1326,3.1397,3.1408,3.145,3.1505,3.1509,3.1449,3.1443,3.1549,3.1561,3.1574,3.1739,3.1603,3.1611,3.1616,3.1971,3.1977,3.1982,0,0,0,0,0,0,3.1258,3.1278,3.1445,3.1367,3.1387,3.1406,3.1453,3.1454,3.1485,3.1513,3.1516,3.1477,3.1546,3.1563,3.1673,3.1742,3.1615,3.1622,3.1965,3.1973,3.1979,3.2068,0,0,0,0,0,0,3.1252,3.1277,3.1326,3.1368,3.1391,3.1539,3.1457,3.1459,3.1498,3.1491,3.1541,3.1545,3.1544,3.1661,3.1681,3.1751,3.1629,3.1959,3.1969,3.1977,3.2059,3.2077,3.2092,0,0,0,0,0,3.1244,3.1347,3.1329,3.1349,3.1453,3.1543,3.1556,3.1551,3.1504,3.1555,3.1574,3.1543,3.1731,3.1672,3.1695,3.1768,3.1955,3.1966,3.1976,3.2051,3.2073,3.2092,0,0,0,0,0,0,3.1314,3.1352,3.1332,3.1452,3.1494,3.1533,3.1597,3.1574,3.1633,3.1624,3.1617,3.1629,3.1744,3.1767,3.1701,3.1904,3.1836,3.1852,3.1885,3.1906,3.1923,3.1916,3.1635,0,0,0,0,0,3.1343,3.141,3.1441,3.1544,3.1566,3.1578,3.1617,3.161,3.1655,3.1673,3.17,3.1746,3.1816,3.1862,3.1927,3.2061,3.2074,3.2123,3.214,3.2154,3.2169,3.2246,3.2269,3.2017,3.2017,3.2017,0,0,3.1404,3.1433,3.1476,3.1559,3.1591,3.1664,3.1594,3.1673,3.1729,3.1685,3.1791,3.1813,3.1865,3.1988,3.2044,3.2011,3.2241,3.2168,3.2179,3.2186,3.2259,3.2283,3.2304,3.2025,3.2023,3.2022,0,0,3.1553,3.1581,3.1671,3.1705,3.1754,3.1762,3.1785,3.1827,3.184,3.1946,3.1916,3.1983,3.2102,3.2142,3.2178,3.2347,3.2322,3.2368,3.2458,3.2533,3.2553,3.257,3.2635,3.2657,3.2382,3.2382,3.2382,0,3.1624,3.173,3.1721,3.1804,3.1843,3.1806,3.1901,3.1935,3.2004,3.2033,3.1994,3.2146,3.2178,3.2312,3.2354,3.2383,3.2411,3.2363,3.255,3.2568,3.2584,3.2645,3.2669,3.2388,3.2387,3.2387,3.2386,0,3.1817,3.1892,3.1959,3.2027,3.2073,3.2161,3.2169,3.2217,3.2207,3.2221,3.2332,3.2369,3.2443,3.2474,3.2465,3.2609,3.2588,3.255,3.2482,3.2614,3.2672,3.2695,3.2396,3.2394,3.2392,3.2391,0,0,3.2012,3.2075,3.21,3.2132,3.2186,3.2245,3.2333,3.2405,3.2449,3.2499,3.2576,3.2679,3.2645,3.2686,3.2681,3.2747,3.2884,3.2702,3.2703,3.2737,3.305,3.308,3.3107,3.2867,3.2871,3.2875,3.3047,0,3.2168,3.232,3.2316,3.2459,3.2531,3.2499,3.2577,3.262,3.2636,3.2702,3.272,3.2794,3.2742,3.2767,3.2831,3.2853,3.2947,3.2841,3.2942,3.2946,3.2932,3.3136,3.3168,3.3328,3.3069,3.3073,3.3075,0,3.2369,3.2425,3.2576,3.2623,3.2653,3.2722,3.279,3.2852,3.2902,3.2909,3.2956,3.2942,3.3036,3.2964,3.3096,3.3024,3.3065,3.3083,3.309,3.3101,3.302,3.3156,3.3379,3.3404,3.311,3.3107,3.3105,0,3.2501,3.2615,3.272,3.2748,3.2804,3.2855,3.2881,3.2927,3.2972,3.3031,3.3061,3.3132,3.3171,3.3228,3.3235,3.3181,3.3369,3.3297,3.3381,3.3382,3.3424,3.3422,3.3659,3.3446,3.3446,3.3445,3.3445,0,3.2677,3.2771,3.2781,3.2846,3.2953,3.2949,3.3055,3.3077,3.3119,3.319,3.3167,3.3235,3.3239,3.3311,3.3317,3.3428,3.3445,3.3456,3.3457,3.346,3.3459,3.3488,3.3479,3.3452,3.345,3.3449,3.3448,0,3.2842,3.2852,3.2966,3.3011,3.3024,3.3101,3.3141,3.3205,3.3219,3.331,3.3332,3.3355,3.3438,3.345,3.3547,3.3552,3.3686,3.3674,3.3669,3.3668,3.3754,3.3747,3.4021,3.4058,3.3818,3.382,3.3822,0,3.2955,3.3027,3.308,3.3125,3.3154,3.3228,3.3274,3.3274,3.3323,3.3388,3.3446,3.3526,3.3591,3.3726,3.3753,3.3829,3.3821,3.3912,3.3832,3.3834,3.3827,3.3823,3.3832,3.3928,3.393,3.3932,3.3934,0,3.3155,3.3157,3.3223,3.3293,3.3348,3.3403,3.3454,3.3494,3.3501,3.3559,3.3643,3.3693,3.3793,3.3875,3.3951,3.3981,3.3961,3.3959,3.3983,3.3988,3.3983,3.399,3.3714,3.3953,3.3951,3.395,3.3949,3.3948,3.33,3.3364,3.3412,3.3488,3.3527,3.3577,3.364,3.3663,3.3732,3.3813,3.381,3.3904,3.3956,3.4055,3.4091,3.4167,3.4138,3.4172,3.4181,3.419,3.42,3.3969,3.418,3.418,3.4179,3.4179,3.4179,0,3.3502,3.3532,3.3601,3.3675,3.3736,3.3709,3.3766,3.382,3.3902,3.3952,3.4016,3.4115,3.4196,3.423,3.431,3.4364,3.4357,3.4385,3.4383,3.4391,3.422,3.4193,3.439,3.439,3.439,3.439,3.439,3.439,3.3615,3.3723,3.3732,3.3861,3.389,3.3981,3.4017,3.4064,3.4104,3.4216,3.4282,3.4303,3.4348,3.4431,3.4505,3.4514,3.4546,3.4579,3.4584,3.4424,3.4402,3.4382,3.4357,3.4585,3.4585,3.4749,3.475,3.4751]},{"header":{"parameterUnit":"m.s-1","parameterCategory":1,"la1":30.2991,"la2":30.254,"lo1":-89.0895,"lo2":-89.0444,"dy":0.0017,"dx":0.0017,"nx":28,"ny":28,"refTime":"2024-10-13T09:00:00:Z","depth":0,"parameterNumber":3,"parameterNumberName":"V-component_of_WINDS"},"data":[0,0,0,0,0,0,0,0,0,0,0,0,0,0,0,0,0,0,0,0,0,0,0,0,0,0,0,0,0,0,0,0,0,0,0,0,0,0,0,0,0,0,0,0,0,0,0,0,0,0,0,0,0,0,0,0,0,0,1.7862,1.7863,0,1.7996,1.7997,1.7999,1.8011,1.801,1.8008,1.8007,1.8145,1.8149,1.8154,0,0,0,0,0,0,0,0,0,0,0,0,0,1.7613,1.7618,1.7861,1.7863,1.7865,1.7996,1.7997,1.7999,1.8011,1.801,1.8008,1.8006,1.8143,1.8149,1.8155,0,0,0,0,0,0,0,0,0,0,0,0,0,1.7732,1.7619,1.7861,1.7887,1.789,1.7995,1.7997,1.8,1.8012,1.801,1.8007,1.8006,1.8141,1.8148,1.8156,1.8244,0,0,1.8179,1.8182,0,0,0,0,0,0,0,0,1.7725,1.7741,1.7881,1.7885,1.7889,1.7985,1.796,1.8082,1.8012,1.7966,1.8007,1.8004,1.8093,1.8104,1.8134,1.8251,1.8257,1.8179,1.8184,1.8187,1.8189,0,0,0,0,0,0,0,1.7717,1.7735,1.7915,1.7883,1.7888,1.7891,1.7905,1.7983,1.804,1.797,1.7971,1.7986,1.8095,1.8127,1.8138,1.8259,1.8179,1.8186,1.819,1.8193,1.8451,1.8453,0,0,0,0,0,0,1.7704,1.7728,1.791,1.7919,1.78,1.7897,1.7913,1.7956,1.8039,1.8049,1.7988,1.7987,1.8115,1.8129,1.8142,1.8249,1.8187,1.8194,1.8198,1.8448,1.8451,1.8454,0,0,0,0,0,0,1.7698,1.772,1.7905,1.7824,1.7847,1.7903,1.7952,1.796,1.7992,1.8053,1.8063,1.8011,1.8114,1.8132,1.8218,1.8254,1.8197,1.8204,1.8446,1.8449,1.8453,1.8465,0,0,0,0,0,0,1.7691,1.7718,1.7753,1.7824,1.7852,1.7979,1.7954,1.7964,1.8005,1.8004,1.8077,1.8087,1.8114,1.8207,1.8225,1.8263,1.821,1.8443,1.8447,1.8451,1.8462,1.8468,1.8474,0,0,0,0,0,1.7682,1.7752,1.7755,1.7777,1.7897,1.7981,1.7997,1.8027,1.8008,1.8043,1.8081,1.8084,1.8247,1.8216,1.8237,1.8277,1.8441,1.8446,1.8451,1.8459,1.8467,1.8474,0,0,0,0,0,0,1.7685,1.7762,1.7766,1.7861,1.7914,1.7983,1.8029,1.8035,1.8095,1.8092,1.8126,1.8142,1.8226,1.8261,1.8224,1.8366,1.8342,1.8352,1.834,1.8349,1.8355,1.8345,1.8216,0,0,0,0,0,1.7696,1.7758,1.7823,1.79,1.7927,1.7973,1.8011,1.8029,1.8085,1.8108,1.8153,1.8208,1.8271,1.8312,1.8374,1.8466,1.8481,1.8505,1.8511,1.8516,1.8524,1.8572,1.8582,1.8471,1.8471,1.8471,0,0,1.7721,1.777,1.7808,1.7902,1.7945,1.8008,1.7992,1.806,1.8106,1.8119,1.8202,1.8236,1.8299,1.8388,1.843,1.8419,1.8557,1.8523,1.8526,1.8531,1.8578,1.8589,1.8598,1.8475,1.8474,1.8474,0,0,1.7797,1.7842,1.791,1.7953,1.8018,1.8048,1.8064,1.8132,1.8155,1.8239,1.8248,1.8303,1.8413,1.8456,1.8492,1.8581,1.8585,1.86,1.8633,1.868,1.8688,1.8696,1.8725,1.8736,1.8608,1.8608,1.8608,0,1.7819,1.7914,1.7944,1.8011,1.805,1.8063,1.8131,1.8172,1.8254,1.8281,1.8268,1.8402,1.8446,1.8543,1.8564,1.8594,1.8612,1.8592,1.8685,1.8693,1.8701,1.8729,1.874,1.8609,1.8609,1.8609,1.8608,0,1.7937,1.8003,1.805,1.8127,1.8172,1.824,1.8278,1.832,1.8333,1.8363,1.8447,1.8499,1.857,1.8595,1.8609,1.8693,1.8684,1.8678,1.8654,1.8712,1.8739,1.875,1.8611,1.861,1.861,1.861,0,0,1.802,1.8111,1.8127,1.8161,1.8233,1.8284,1.835,1.8419,1.8453,1.8509,1.8564,1.8654,1.8647,1.8688,1.8707,1.8748,1.8811,1.8736,1.8738,1.8746,1.8904,1.8907,1.8919,1.8814,1.8816,1.8818,1.8897,0,1.8103,1.8221,1.8248,1.835,1.8409,1.8421,1.8478,1.8527,1.8557,1.8611,1.8643,1.8705,1.8693,1.8718,1.8759,1.8795,1.8843,1.8789,1.8864,1.8866,1.8846,1.8934,1.8938,1.9011,1.8908,1.891,1.8912,0,1.8216,1.8272,1.8379,1.844,1.8466,1.8517,1.858,1.8632,1.8687,1.8705,1.8749,1.8763,1.883,1.8804,1.8895,1.8858,1.889,1.8912,1.8915,1.8923,1.8892,1.8941,1.9035,1.9045,1.8929,1.8928,1.8926,0,1.8262,1.8365,1.8442,1.8471,1.8544,1.8579,1.8611,1.8664,1.8703,1.8758,1.8782,1.8845,1.8878,1.8925,1.8955,1.8933,1.9043,1.902,1.9058,1.9058,1.9081,1.9079,1.9179,1.9104,1.9104,1.9103,1.9103,0,1.8351,1.8415,1.8463,1.851,1.8582,1.8611,1.8681,1.8713,1.876,1.8812,1.8826,1.8874,1.891,1.8963,1.8986,1.9057,1.9073,1.9088,1.9093,1.9086,1.9084,1.9107,1.9102,1.9106,1.9106,1.9105,1.9105,0,1.8415,1.845,1.8534,1.8595,1.8612,1.8662,1.8714,1.8759,1.8788,1.8854,1.8871,1.8916,1.8978,1.9012,1.9091,1.9106,1.9184,1.9188,1.9166,1.9168,1.9204,1.9199,1.9322,1.9338,1.9253,1.9254,1.9254,0,1.8469,1.8518,1.8585,1.862,1.8653,1.8711,1.8749,1.8779,1.8819,1.8883,1.8919,1.8983,1.9035,1.9134,1.9173,1.9232,1.9236,1.9274,1.9245,1.9235,1.9233,1.9229,1.9233,1.9279,1.928,1.9281,1.9281,0,1.856,1.8573,1.8629,1.8689,1.8735,1.8784,1.8832,1.8861,1.8898,1.8942,1.9005,1.9045,1.9124,1.9186,1.9248,1.9279,1.9286,1.929,1.9302,1.9294,1.9279,1.9285,1.9178,1.9287,1.9286,1.9286,1.9286,1.9285,1.8619,1.8662,1.8715,1.8775,1.8814,1.8858,1.8903,1.8936,1.899,1.9056,1.9071,1.9137,1.9188,1.9271,1.9304,1.9355,1.9348,1.9365,1.9369,1.9373,1.9373,1.9271,1.9367,1.9367,1.9367,1.9367,1.9366,0,1.8708,1.8742,1.8797,1.8864,1.891,1.8912,1.8965,1.9003,1.9062,1.9108,1.9159,1.923,1.9289,1.9331,1.9391,1.9423,1.9428,1.9438,1.9435,1.9442,1.9378,1.9361,1.9433,1.9433,1.9433,1.9433,1.9433,1.9433,1.876,1.8833,1.8852,1.8943,1.8976,1.9042,1.9071,1.9111,1.9148,1.9227,1.9276,1.9303,1.9347,1.941,1.9463,1.9473,1.9494,1.9503,1.9514,1.9454,1.9447,1.944,1.9424,1.9508,1.9508,1.9573,1.9574,1.9574]}]]